Regional Weather Roundup
Issued by NWS Sterling, VA

Home | Current Version | Previous Version | Graphics & Text | Print | Product List | Glossary On
Versions: 1 2 3 4 5 6 7 8 9 10 11 12 13 14 15 16 17 18 19 20 21 22 23 24 25 26 27 28
000
ASUS41 KLWX 281310
RWRLWX

REGIONAL WEATHER ROUNDUP
NATIONAL WEATHER SERVICE BALTIMORE MD/WASHINGTON DC
900 AM EDT SAT MAY 28 2016

Note: "FAIR" indicates few or no clouds below 12,000 feet
with no significant weather and/or obstructions to visibility.
 TC=TEMPERATURE CELSIUS

 * =Non NWS site. Station does not report precipitation (e.g. rain,
    snow, etc.), thunder, or fog.

DCZ001-MDZ009-015-VAZ040>042-051-053>054-281400-
WASHINGTON METRO

CITY           SKY/WX    TMP DP  RH WIND       PRES   REMARKS
WASHINGTON NAT FAIR      74  64  71 S9        30.16R
DULLES         FAIR      74  64  71 S6        30.16R
ANDREWS AFB    SUNNY     76  62  63 SW9       30.16R
FT BELVOIR     FAIR      75  63  65 S5        30.16R
QUANTICO       FAIR      73  65  75 S9        30.17R
COLLEGE PARK*  FAIR      73  61  64 SW7       30.16R
LEESBURG*      FAIR      77  70  78 S8        30.18R

$$

MDZ006>007-011-014-281400-
BALTIMORE METRO

CITY           SKY/WX    TMP DP  RH WIND       PRES   REMARKS
BWI AIRPORT    MOSUNNY   76  63  64 W6        30.15R
MD SCIENCE CTR   N/A     76  63  64 MISG      30.15R
MARTIN STATE   SUNNY     75  66  73 S3        30.16R
ANNAPOLIS      SUNNY     74  63  68 S7        30.15R
FORT MEADE*    SUNNY     73  63  68 SW6       30.18R

$$

MDZ012-015-019>023-281400-
MARYLAND EASTERN SHORE

CITY           SKY/WX    TMP DP  RH WIND       PRES   REMARKS
OCEAN CITY     SUNNY     72  65  78 S8        30.20R
SALISBURY      SUNNY     75  64  68 SW9       30.19R
BAY BRIDGE AP* SUNNY     75  61  60 SW8       30.16R
CAMBRIDGE*     SUNNY     73  63  68 S6        30.17S
EASTON*        SUNNY     75  66  73 SW8       30.20R

$$

MDZ017>025-281400-
SOUTHERN MARYLAND

CITY           SKY/WX    TMP DP  RH WIND       PRES   REMARKS
PATUXENT RIVER MOSUNNY   74  61  63 SW6       30.17S
ST INIGOES     SUNNY     73  62  68 S8        30.17R
LEONARDTOWN*   SUNNY     73  61  64 SW6       30.19R

$$

MDZ003>005-281400-
NORTH CENTRAL MARYLAND

CITY           SKY/WX    TMP DP  RH WIND       PRES   REMARKS
FREDERICK*     SUNNY     75  70  83 SW5       30.18R
HAGERSTOWN APT SUNNY     74  67  78 S3        30.16R
WESTMINSTER*   SUNNY     75  52  43 SW6       30.17R

$$

MDZ501>502-281400-
WESTERN MARYLAND

CITY           SKY/WX    TMP DP  RH WIND       PRES   REMARKS
OAKLAND*       NOT AVBL
CUMBERLAND*    CLOUDY    68  68 100 CALM      30.22R

$$

VAZ025>031-281400-
SHENANDOAH VALLEY

CITY           SKY/WX    TMP DP  RH WIND       PRES   REMARKS
WINCHESTER*    FAIR      75  66  73 S3        30.17R
FRONT ROYAL*   FAIR      72  68  88 CALM      30.16R
LURAY*         FAIR      73  70  88 CALM      30.18R
NEW MARKET*    FAIR      72  67  82 SW3       30.17R
STAUNTON*      FAIR      70  66  89 SE3       30.21R
WAYNESBORO*    FAIR      72  65  78 CALM      30.20R

$$

WVZ021-048>050-054>055-281400-
EASTERN WEST VIRGINIA PANHANDLE

CITY           SKY/WX    TMP DP  RH WIND       PRES   REMARKS
MARTINSBURG    FAIR      75  66  73 VRB3      30.15R
PETERSBURG*    FAIR      69  67  92 CALM      30.18S

$$

VAZ036>039-050-281400-
CENTRAL FOOTHILLS

CITY           SKY/WX    TMP DP  RH WIND       PRES   REMARKS
CHARLOTTESVILL FAIR      74  65  73 S3        30.16R
CULPEPER*      FAIR      76  67  73 SW5       30.17R
ORANGE*        FAIR      75  64  69 SW3       30.18R
GORDONSVILLE*  FAIR      74  65  75 SW7       30.16R
WARRENTON*     FAIR      76  61  58 S3        30.16R

$$

VAZ055>057-281400-
NORTH AND CENTRAL PIEDMONT

CITY           SKY/WX    TMP DP  RH WIND       PRES   REMARKS
FREDERICKSBRG* FAIR      74  64  69 SW6       30.16R
STAFFORD*      FAIR      74  62  64 S3        30.20R

$$

NCZ024-NYZ072-PAZ021-071-VAZ022-071-281400-
OTHER REGIONAL OBSERVATIONS

CITY           SKY/WX    TMP DP  RH WIND       PRES   REMARKS
NEW YORK CITY  SUNNY     76  60  57 VRB6      30.15R
PHILADELPHIA   PTSUNNY   75  61  61 SW10      30.16R
PITTSBURGH     PTSUNNY   74  63  68 CALM      30.14R
ROANOKE        FAIR      72  64  76 CALM      30.21R
RICHMOND       FAIR      73  61  65 SW8       30.19R
RALEIGH        MOSUNNY   73  64  73 CALM      30.19S

$$

ANZ530>537-281400-
MARINE OBSERVATIONS

STATION/POSITION TIME  TEMP    WIND        PRES
                       AIR SEA DIR/SP/G
                 (UTC) (F)     (DEG/KT/KT) (MB)
THOMAS PT LIGHT  1300   68 66  180/ 12/ 14 1022.4R
BALT KEY BRIDGE  1200   71     130/  5/  5 1020.6R
COVE POINT       1200   68     180/  9/ 10 1022.1R
LEWISETTA        1200   72 63  240/  9/ 11 1021.2R
SOLOMONS ISLAND  1200   71 66  210/  6/  7   N/A
PINEY POINT      1200          220/  6/  7   N/A

$$





USA.gov is the U.S. government's official web portal to all federal, state and local government web resources and services.